Regional Weather Roundup
Issued by NWS State College, PA

Home | Current Version | Previous Version | Text Only | Print | Product List | Glossary Off
Versions: 1 2 3 4 5 6 7 8 9 10 11 12 13 14 15 16 17 18 19 20 21 22 23 24 25 26 27 28 29 30 31 32 33 34 35 36 37 38 39 40 41 42 43 44 45 46 47 48 49 50

000
ASUS41 KCTP 300603
RWRCTP

REGIONAL WEATHER ROUNDUP
NATIONAL WEATHER SERVICE STATE COLLEGE PA
200 AM EDT THU OCT 30 2014

Note: "fair" indicates few or no clouds below 12,000 feet with no
significant weather and/or obstructions to visibility.

* = STATION THAT DOES NOT REPORT PRECIPITATION /E.G. RAIN...SNOW...ETC/
    THUNDER OR FOG.

PAZ002>004-007>009-013>016-020>023-029>032-300700-
WESTERN PENNSYLVANIA

CITY           SKY/WX    TMP DP  RH WIND       PRES   REMARKS
ERIE           CLOUDY    49  37  63 NW8       30.03R
MEADVILLE      CLOUDY    41  39  93 SW5       30.03R FOG
FRANKLIN*      CLOUDY    41  37  87 W8        30.03F
NEW CASTLE       N/A     44  38  79 CALM      30.06S
BEAVER COUNTY  NOT AVBL
BUTLER*        CLOUDY    43  34  70 W3        30.05S
PITTSBURGH INT PTCLDY    40  34  79 W5        30.04S
PITTSBURGH     CLEAR     42  31  64 W7        30.04S
INDIANA*       CLOUDY    43  34  70 CALM      30.06S
LATROBE        CLOUDY    45  36  70 CALM      30.06S
WASHINGTON CO* CLEAR     37  30  75 W3        30.07S
$$

PAZ004>006-010>012-017>019-024>028-033>037-041-042-045-046-049>053-300700-
CENTRAL PENNSYLVANIA

CITY           SKY/WX    TMP DP  RH WIND       PRES   REMARKS
BRADFORD       CLOUDY    39  36  89 W3        29.98S
DUBOIS         CLOUDY    42  36  79 W9        29.99S
CLEARFIELD     MOCLDY    43  35  73 SW6       30.00S
JOHNSTOWN      CLOUDY    42  31  64 W8        30.00S
ALTOONA        MOCLDY    45  34  65 W5        30.01S
STATE COLLEGE  PTCLDY    46  35  64 W3        29.99S
WILLIAMSPORT   CLEAR     42  37  82 CALM      29.97R
SELINSGROVE    CLOUDY    41  40  96 CALM      29.99R
FT INDIANTOWN  FOG       42  42 100 SE2       29.98S VSB 1/4
CAPITAL CITY   FOG       43  42  97 SW5       29.99S VSB 1/4
HARRISBURG     FOG       45  45 100 CALM      29.98S VSB 1/8
YORK           FOG       44  43  96 CALM      29.99R VSB<1/4
$$

PAZ038>040-043-044-047-048-054-055-060>062-067>071-300700-
EASTERN PENNSYLVANIA

CITY           SKY/WX    TMP DP  RH WIND       PRES   REMARKS
SCRANTON       MOCLDY    44  42  93 S3        29.94S
MOUNT POCONO   FOG       36  35  96 N3        29.93F VSB 1/2
ALLENTOWN      FOG       46  44  93 W3        29.96S VSB 1/4
QUAKERTOWN*    CLOUDY    39  39 100 CALM      29.97S VSB<1/4
READING        FOG       45  43  93 N3        29.97S VSB 1/4
LANCASTER      FOG       45  44  97 W5        29.98S VSB<1/4
COATESVILLE    FOG       45  45 100 W5        29.98S VSB<1/4
POTTSTOWN      FOG       43  43 100 CALM      29.99R VSB 1/4
BLUE BELL      CLOUDY    46  46 100 CALM      29.96F VSB<1/4
DOYLESTOWN     FOG       42  42 100 CALM      29.96S VSB 1/4
WILLOW GROVE   NOT AVBL
NORTH PHILA    FOG       48  44  86 NW3       29.98F VSB 1/4
PHILADELPHIA   CLEAR     48  45  89 SW7       29.98S FOG
$$



USA.gov is the U.S. government's official web portal to all federal, state and local government web resources and services.